User: anonymous   Login
Location: Blanot
(47.1713°N, 4.2340°E)
Time: 18:18:20
(UTC+00:00)
Language:

RESURS DK-1 - Orbit

View from above orbital plane
View from above orbital plane
View from above satellite
View from above satellite

Ground track
Ground track

The orbit data is extracted from the following two-line orbital elements,

1 29228U 06021A   20263.14848333  .00000034  00000-0  99311-5 0  9994
2 29228  69.9354 309.4759 0007227 299.1026  60.9410 15.02567257786826
Epoch (UTC): 19 September 2020 03:33:48
Eccentricity: 0.0007227
inclination: 69.9354°
perigee height: 554 km
apogee height: 564 km
right ascension of ascending node: 309.4759°
argument of perigee: 299.1026°
revolutions per day: 15.02567257
mean anomaly at epoch: 60.9410°
orbit number at epoch: 78682

The dashed part of the orbit path shows where the satellite is in the earth's shadow,  

DLR